Overview Statistics Trail Chart Weather Telemetry Raw packets
 

This is the latest recevied weather packets stored in our database for station/object OE3CJB-13. If no packets are shown the sender has not sent any weather packets the latest 10 day(s).

<< 17 18 19 20 21 22 23 >>
Time Temp. Humidity Pressure Rain* Wind** Luminosity Snow
1788300048 16.11° C 68% 1198.3 hPa 0 mm - - -
1788299133 16.67° C 66% 1197.5 hPa 0 mm - - -
1788298221 16.67° C 66% 1198.2 hPa 0 mm - - -
1788297365 16.67° C 67% 1198.1 hPa 0 mm - - -
1788296447 16.67° C 66% 1197.4 hPa 0 mm - - -
1788295532 17.22° C 65% 1197.3 hPa 0 mm - - -
1788294631 17.78° C 63% 1197.2 hPa 0 mm - - -
1788293757 17.78° C 62% 1197.9 hPa 0 mm - - -
1788292863 18.33° C 60% 1197.9 hPa 0 mm - - -
1788291933 18.33° C 56% 1197.1 hPa 0 mm - - -
1788291021 18.89° C 53% 1198.5 hPa 0 mm - - -
1788290158 19.44° C 52% 1197.7 hPa 0 mm - - -
1788289247 20° C 49% 1197.6 hPa 0 mm - - -
1788288333 20.56° C 47% 1197.5 hPa 0 mm - - -
1788287421 20.56° C 42% 1197.4 hPa 0 mm - - -
1788286558 21.67° C 39% 1197.2 hPa 0 mm - - -
1788285647 22.22° C 35% 1196.3 hPa 0 mm - - -
1788284738 23.33° C 30% 1196.2 hPa 0 mm - - -
1788283874 23.89° C 27% 1195.4 hPa 0 mm - - -
1788282958 25° C 23% 1193.7 hPa 0 mm - - -
1788282068 25° C 22% 1193.1 hPa 0 mm - - -
1788281166 25.56° C 22% 1192.2 hPa 0 mm - - -
1788280269 26.11° C 19% 1190.7 hPa 0 mm - - -
1788279357 26.67° C 18% 1187.7 hPa 0 mm - - -
1788278448 26.67° C 17% 1189.1 hPa 0 mm - - -

* Rain latest hour (hover to see other rain measurements)
** Current wind speed in m/s (hover to see current wind gust speed)